Regional Weather Roundup
Issued by NWS

Home | Current Version | Previous Version | Graphics & Text | Print | Product List | Glossary On
Versions: 1 2 3 4 5 6 7 8 9 10 11 12 13 14 15 16 17 18 19 20 21 22 23 24 25 26 27 28 29 30 31 32 33 34 35 36 37 38 39 40 41 42 43 44 45 46 47 48 49 50
466
ASUS45 KSLC 031010
RWRUT

UTAH REGIONAL WEATHER ROUNDUP
NATIONAL WEATHER SERVICE SALT LAKE CITY UT
300 AM MST SAT DEC 03 2016

UTZ001>011-023>025-031100-

NORTHERN UTAH

CITY           SKY/WX    TMP DP  RH WIND       PRES   REMARKS
HILL AFB       CLOUDY    21  14  74 SE9       30.26R WCI  11
LOGAN          NOT AVBL
OGDEN          NOT AVBL
SALT LAKE CITY MOCLDY    25  17  72 E7        30.28S WCI  17
TOOELE VALLEY  PTCLDY    21  18  86 S13       30.28S WCI   9
WENDOVER       CLOUDY    25  16  68 N3        30.27R
WEST JORDAN    CLEAR     22  20  90 SW5       30.27S WCI  16

$$

UTZ011>015-024>027-031100-

CENTRAL/NORTHEAST UTAH

CITY           SKY/WX    TMP DP  RH WIND       PRES   REMARKS
PROVO AIRPORT  PTCLDY    20  14  77 SE7       30.30F WCI  11
MOAB/CANYONLAN CLEAR     20  13  74 CALM      30.20S
DELTA          CLEAR     18  16  93 CALM      30.29R
PRICE          PTCLDY    17   8  67 CALM      30.18R
RICHFIELD      PTCLDY    16  14  93 CALM      30.27
ROOSEVELT      CLOUDY    19  12  73 CALM      30.25R
VERNAL         NOT AVBL

$$

UTZ013>016-019>022-027-031100-

SOUTHERN UTAH

CITY           SKY/WX    TMP DP  RH WIND       PRES   REMARKS
BRYCE CANYON   NOT AVBL
CEDAR CITY     NOT AVBL
MILFORD        CLEAR     17  14  88 NE3       30.25F
ST GEORGE      MOSUNNY   34  16  47 S6        30.26R WCI  29
KANAB          CLEAR     28  14  54 NE7G14    30.23  WCI  21

$$

REGIONAL REPORTS     COLORADO/ARIZONA

CITY           SKY/WX    TMP DP  RH WIND       PRES   REMARKS
CRAIG, CO      CLOUDY    17  13  84 CALM      30.19
GRAND JUNCTION CLEAR     20  17  88 CALM      30.21
RIFLE, CO      CLOUDY    23  16  74 CALM      30.22
MONTROSE, CO   CLOUDY    21  18  88 S7        30.22R WCI  12
CORTEZ, CO     CLEAR     17  15  92 E7        30.12  WCI   8
PAGE, AZ       CLEAR     34   9  35 W5        30.17R WCI  30
GRAND CANYON   CLEAR    N/A N/A N/A NE9       30.10
KINGMAN, AZ    CLEAR     31  12  45 E10       30.12S WCI  22
FLAGSTAFF, AZ  NOT AVBL

$$

REGIONAL REPORTS    NEVADA/IDAHO/WYOMING

CITY           SKY/WX    TMP DP  RH WIND       PRES   REMARKS
LAS VEGAS, NV  NOT AVBL
ELY, NY        NOT AVBL
ELKO, NV       PTCLDY    21  15  78 CALM      30.29R
POCATELLO, ID  NOT AVBL
EVANSTON, WY   NOT AVBL
ROCK SPRINGS,  CLOUDY    15  10  80 SW15      30.10F WCI   0

$$




USA.gov is the U.S. government's official web portal to all federal, state and local government web resources and services.